| time (UTC) | temp F | wind direction | speed knots | gust knots | rain 1hr in | rain 24hr in | rain mn in | humidity % | barometer mb |
| 20260507112559 | 35 | 0 | 0.0 | 0.9 | 0.00 | 0.00 | 0.00 | 81 | 1026.8 |
| 20260507112059 | 35 | 0 | 0.0 | 0.9 | 0.00 | 0.00 | 0.00 | 78 | 1026.8 |
| 20260507111559 | 34 | 0 | 0.0 | 0.9 | 0.00 | 0.00 | 0.00 | 77 | 1026.9 |
| 20260507111057 | 35 | 0 | 0.0 | 0.0 | 0.00 | 0.00 | 0.00 | 76 | 1026.9 |
| 20260507110558 | 35 | 0 | 0.0 | 0.0 | 0.00 | 0.00 | 0.00 | 79 | 1026.9 |
| 20260507110103 | 36 | 0 | 0.0 | 0.0 | 0.00 | 0.00 | 0.00 | 77 | 1026.8 |
| 20260507105558 | 36 | 0 | 0.0 | 0.9 | 0.00 | 0.00 | 0.00 | 78 | 1026.8 |
| 20260507105057 | 36 | 0 | 0.0 | 1.7 | 0.00 | 0.00 | 0.00 | 75 | 1026.9 |
| 20260507104603 | 36 | 205 | 0.0 | 1.7 | 0.00 | 0.00 | 0.00 | 74 | 1026.8 |
| 20260507104056 | 36 | 0 | 0.0 | 0.0 | 0.00 | 0.00 | 0.00 | 74 | 1026.9 |
| 20260507103558 | 36 | 0 | 0.0 | 0.0 | 0.00 | 0.00 | 0.00 | 73 | 1027.0 |
| 20260507103129 | 37 | 0 | 0.0 | 1.7 | 0.00 | 0.00 | 0.00 | 72 | 1026.9 |
| 20260507102558 | 37 | 0 | 0.0 | 1.7 | 0.00 | 0.00 | 0.00 | 71 | 1026.9 |
| 20260507102058 | 38 | 0 | 0.0 | 0.9 | 0.00 | 0.00 | 0.00 | 70 | 1026.8 |
| 20260507101556 | 38 | 0 | 0.0 | 0.9 | 0.00 | 0.00 | 0.00 | 71 | 1026.9 |
| 20260507101100 | 38 | 0 | 0.0 | 0.9 | 0.00 | 0.00 | 0.00 | 73 | 1026.9 |
| 20260507100557 | 37 | 0 | 0.0 | 2.6 | 0.00 | 0.00 | 0.00 | 73 | 1026.9 |
| 20260507100110 | 37 | 173 | 0.0 | 2.6 | 0.00 | 0.00 | 0.00 | 73 | 1027.0 |
| 20260507095558 | 37 | 184 | 0.0 | 1.7 | 0.00 | 0.00 | 0.00 | 73 | 1027.0 |
| 20260507095057 | 37 | 0 | 0.0 | 0.9 | 0.00 | 0.00 | 0.00 | 74 | 1027.1 |
| 20260507094601 | 37 | 184 | 0.0 | 0.9 | 0.00 | 0.00 | 0.00 | 74 | 1027.1 |
| 20260507094058 | 37 | 0 | 0.0 | 0.9 | 0.00 | 0.00 | 0.00 | 74 | 1027.2 |
| 20260507093558 | 37 | 0 | 0.0 | 0.9 | 0.00 | 0.00 | 0.00 | 74 | 1027.2 |
| 20260507093102 | 38 | 0 | 0.0 | 0.0 | 0.00 | 0.00 | 0.00 | 74 | 1027.3 |
| 20260507092557 | 38 | 0 | 0.0 | 0.0 | 0.00 | 0.00 | 0.00 | 74 | 1027.3 |
| 20260507092058 | 38 | 0 | 0.0 | 0.0 | 0.00 | 0.00 | 0.00 | 74 | 1027.4 |
| 20260507091600 | 39 | 0 | 0.0 | 0.0 | 0.00 | 0.00 | 0.00 | 74 | 1027.7 |
| 20260507091058 | 39 | 0 | 0.0 | 0.9 | 0.00 | 0.00 | 0.00 | 74 | 1027.6 |
| 20260507090558 | 39 | 0 | 0.0 | 0.9 | 0.00 | 0.00 | 0.00 | 74 | 1027.6 |
| 20260507085558 | 39 | 0 | 0.0 | 1.7 | 0.00 | 0.00 | 0.00 | 75 | 1027.6 |
| 20260507085059 | 39 | 203 | 0.0 | 0.9 | 0.00 | 0.00 | 0.00 | 73 | 1027.6 |
| 20260507084606 | 40 | 0 | 0.0 | 0.0 | 0.00 | 0.00 | 0.00 | 72 | 1027.6 |
| 20260507084057 | 40 | 0 | 0.0 | 0.9 | 0.00 | 0.00 | 0.00 | 73 | 1027.5 |
| 20260507083558 | 40 | 0 | 0.0 | 0.9 | 0.00 | 0.00 | 0.00 | 73 | 1027.6 |
| 20260507083100 | 40 | 0 | 0.0 | 1.7 | 0.00 | 0.00 | 0.00 | 73 | 1027.6 |
| 20260507082557 | 40 | 0 | 0.0 | 1.7 | 0.00 | 0.00 | 0.00 | 73 | 1027.6 |
| 20260507082059 | 40 | 0 | 0.9 | 1.7 | 0.00 | 0.00 | 0.00 | 73 | 1027.5 |
| 20260507081601 | 40 | 186 | 0.0 | 1.7 | 0.00 | 0.00 | 0.00 | 71 | 1027.6 |
| 20260507081058 | 41 | 0 | 0.0 | 0.0 | 0.00 | 0.00 | 0.00 | 71 | 1027.5 |
| 20260507080558 | 41 | 0 | 0.0 | 0.0 | 0.00 | 0.00 | 0.00 | 71 | 1027.5 |
| 20260507080058 | 42 | 0 | 0.0 | 0.0 | 0.00 | 0.00 | 0.00 | 70 | 1027.5 |
| 20260507075601 | 42 | 0 | 0.0 | 1.7 | 0.00 | 0.00 | 0.00 | 71 | 1027.5 |
| 20260507075102 | 42 | 175 | 0.0 | 1.7 | 0.00 | 0.00 | 0.00 | 69 | 1027.5 |
| 20260507074608 | 42 | 206 | 0.0 | 1.7 | 0.00 | 0.00 | 0.00 | 68 | 1027.5 |
| 20260507074059 | 42 | 0 | 0.0 | 1.7 | 0.00 | 0.00 | 0.00 | 68 | 1027.7 |
| 20260507073558 | 43 | 0 | 0.0 | 1.7 | 0.00 | 0.00 | 0.00 | 67 | 1027.6 |
| 20260507073055 | 43 | 0 | 0.0 | 1.7 | 0.00 | 0.00 | 0.00 | 67 | 1027.6 |
| 20260507072559 | 43 | 0 | 0.0 | 0.0 | 0.00 | 0.00 | 0.00 | 66 | 1027.6 |
| 20260507072058 | 43 | 0 | 0.0 | 0.0 | 0.00 | 0.00 | 0.00 | 66 | 1027.7 |
| 20260507071606 | 43 | 0 | 0.0 | 0.9 | 0.00 | 0.00 | 0.00 | 64 | 1027.6 |
| 20260507071059 | 43 | 0 | 0.0 | 2.6 | 0.00 | 0.00 | 0.00 | 64 | 1027.5 |
| 20260507070559 | 43 | 190 | 0.0 | 2.6 | 0.00 | 0.00 | 0.00 | 63 | 1027.3 |
| 20260507070108 | 44 | 0 | 0.0 | 0.9 | 0.00 | 0.00 | 0.00 | 61 | 1027.3 |
| 20260507065558 | 44 | 229 | 0.0 | 0.9 | 0.00 | 0.00 | 0.00 | 64 | 1027.4 |
| 20260507065058 | 44 | 0 | 0.0 | 1.7 | 0.00 | 0.00 | 0.00 | 61 | 1027.3 |
| 20260507064602 | 44 | 169 | 0.0 | 1.7 | 0.00 | 0.00 | 0.00 | 61 | 1027.3 |
| 20260507064102 | 44 | 229 | 0.9 | 1.7 | 0.00 | 0.00 | 0.00 | 62 | 1027.3 |
| 20260507063557 | 45 | 0 | 0.0 | 0.9 | 0.00 | 0.00 | 0.00 | 63 | 1027.2 |
| 20260507063109 | 45 | 0 | 0.0 | 0.9 | 0.00 | 0.00 | 0.00 | 66 | 1027.1 |
| 20260507062600 | 45 | 0 | 0.0 | 0.9 | 0.00 | 0.00 | 0.00 | 59 | 1026.9 |
| 20260507062057 | 46 | 0 | 0.0 | 0.9 | 0.00 | 0.00 | 0.00 | 61 | 1026.8 |
| 20260507061559 | 46 | 0 | 0.0 | 1.7 | 0.00 | 0.00 | 0.00 | 61 | 1026.8 |
| 20260507061057 | 46 | 0 | 0.0 | 1.7 | 0.00 | 0.00 | 0.00 | 58 | 1026.8 |
| 20260507060558 | 46 | 0 | 0.0 | 0.9 | 0.00 | 0.00 | 0.00 | 56 | 1026.8 |
| 20260507060104 | 45 | 0 | 0.0 | 0.9 | 0.00 | 0.00 | 0.00 | 57 | 1026.9 |
| 20260507055558 | 45 | 0 | 0.0 | 0.9 | 0.00 | 0.00 | 0.00 | 58 | 1026.8 |
| 20260507055059 | 45 | 0 | 0.0 | 1.7 | 0.00 | 0.00 | 0.00 | 57 | 1026.9 |
| 20260507054616 | 46 | 0 | 0.0 | 3.5 | 0.00 | 0.00 | 0.00 | 56 | 1026.9 |
| 20260507054058 | 46 | 0 | 0.9 | 3.5 | 0.00 | 0.00 | 0.00 | 57 | 1026.9 |
| 20260507053600 | 46 | 245 | 0.9 | 2.6 | 0.00 | 0.00 | 0.00 | 55 | 1027.0 |
| 20260507053112 | 47 | 204 | 0.0 | 0.0 | 0.00 | 0.00 | 0.00 | 58 | 1026.9 |
| 20260507052558 | 47 | 0 | 0.0 | 0.9 | 0.00 | 0.00 | 0.00 | 54 | 1026.9 |
| 20260507052059 | 47 | 0 | 0.0 | 0.9 | 0.00 | 0.00 | 0.00 | 51 | 1026.7 |
| 20260507051600 | 47 | 0 | 0.0 | 0.9 | 0.00 | 0.00 | 0.00 | 50 | 1026.7 |
| 20260507051057 | 48 | 0 | 0.0 | 0.9 | 0.00 | 0.00 | 0.00 | 51 | 1026.6 |
| 20260507050557 | 49 | 0 | 0.0 | 0.0 | 0.00 | 0.00 | 0.00 | 50 | 1026.5 |
| 20260507050100 | 49 | 0 | 0.0 | 0.9 | 0.00 | 0.00 | 0.00 | 50 | 1026.5 |
| 20260507045558 | 49 | 0 | 0.0 | 0.9 | 0.00 | 0.00 | 0.00 | 50 | 1026.4 |
| 20260507045058 | 49 | 0 | 0.0 | 1.7 | 0.00 | 0.00 | 0.00 | 49 | 1026.5 |
| 20260507044603 | 49 | 0 | 0.0 | 1.7 | 0.00 | 0.00 | 0.00 | 48 | 1026.4 |
| 20260507044057 | 49 | 179 | 0.0 | 1.7 | 0.00 | 0.00 | 0.00 | 47 | 1026.3 |
| 20260507043558 | 50 | 202 | 0.9 | 1.7 | 0.00 | 0.00 | 0.00 | 47 | 1026.4 |
| 20260507043101 | 50 | 179 | 0.0 | 1.7 | 0.00 | 0.00 | 0.00 | 46 | 1026.3 |
| 20260507042603 | 50 | 166 | 0.0 | 1.7 | 0.00 | 0.00 | 0.00 | 47 | 1026.2 |
| 20260507042102 | 50 | 160 | 0.0 | 1.7 | 0.00 | 0.00 | 0.00 | 47 | 1026.0 |
| 20260507041609 | 51 | 20 | 0.0 | 1.7 | 0.00 | 0.00 | 0.00 | 46 | 1025.8 |
| 20260507041103 | 51 | 0 | 0.0 | 2.6 | 0.00 | 0.00 | 0.00 | 45 | 1025.8 |
| 20260507040559 | 52 | 0 | 0.0 | 2.6 | 0.00 | 0.00 | 0.00 | 43 | 1025.8 |
| 20260507040059 | 52 | 175 | 0.9 | 1.7 | 0.00 | 0.00 | 0.00 | 43 | 1025.8 |
| 20260507035558 | 53 | 0 | 0.0 | 1.7 | 0.00 | 0.00 | 0.00 | 43 | 1025.5 |
| 20260507035100 | 53 | 173 | 0.9 | 1.7 | 0.00 | 0.00 | 0.00 | 42 | 1025.5 |
| 20260507034608 | 54 | 0 | 0.0 | 1.7 | 0.00 | 0.00 | 0.00 | 41 | 1025.4 |
| 20260507034058 | 55 | 178 | 0.0 | 1.7 | 0.00 | 0.00 | 0.00 | 39 | 1025.5 |
| 20260507033558 | 55 | 248 | 0.0 | 1.7 | 0.00 | 0.00 | 0.00 | 39 | 1025.3 |
| 20260507033059 | 55 | 176 | 0.0 | 1.7 | 0.00 | 0.00 | 0.00 | 38 | 1025.3 |
| 20260507032602 | 56 | 189 | 0.0 | 2.6 | 0.00 | 0.00 | 0.00 | 39 | 1025.2 |
| 20260507032101 | 56 | 236 | 0.0 | 2.6 | 0.00 | 0.00 | 0.00 | 37 | 1025.1 |
| 20260507031601 | 56 | 172 | 0.9 | 2.6 | 0.00 | 0.00 | 0.00 | 38 | 1025.1 |
| 20260507031058 | 57 | 197 | 0.9 | 1.7 | 0.00 | 0.00 | 0.00 | 37 | 1025.0 |
| 20260507030557 | 57 | 200 | 0.0 | 1.7 | 0.00 | 0.00 | 0.00 | 37 | 1024.9 |
| 20260507030105 | 58 | 168 | 0.0 | 1.7 | 0.00 | 0.00 | 0.00 | 36 | 1024.9 |
| 20260507025557 | 59 | 0 | 0.0 | 1.7 | 0.00 | 0.00 | 0.00 | 34 | 1024.8 |
| 20260507025058 | 60 | 0 | 0.0 | 0.9 | 0.00 | 0.00 | 0.00 | 33 | 1024.7 |
| 20260507024559 | 61 | 0 | 0.0 | 4.3 | 0.00 | 0.00 | 0.00 | 31 | 1024.8 |
| 20260507024057 | 61 | 0 | 0.0 | 4.3 | 0.00 | 0.00 | 0.00 | 30 | 1024.5 |
| 20260507023558 | 62 | 103 | 0.0 | 3.5 | 0.00 | 0.00 | 0.00 | 30 | 1024.5 |
| 20260507023059 | 62 | 0 | 1.7 | 3.5 | 0.00 | 0.00 | 0.00 | 29 | 1024.5 |
| 20260507022559 | 62 | 62 | 0.9 | 5.2 | 0.00 | 0.00 | 0.00 | 30 | 1024.4 |
| 20260507022059 | 62 | 49 | 1.7 | 5.2 | 0.00 | 0.00 | 0.00 | 30 | 1024.4 |
| 20260507021627 | 63 | 261 | 2.6 | 5.2 | 0.00 | 0.00 | 0.00 | 30 | 1024.4 |
| 20260507021058 | 63 | 57 | 1.7 | 5.2 | 0.00 | 0.00 | 0.00 | 29 | 1024.2 |
| 20260507020558 | 63 | 53 | 2.6 | 7.0 | 0.00 | 0.00 | 0.00 | 28 | 1024.3 |
| 20260507020112 | 64 | 37 | 2.6 | 7.0 | 0.00 | 0.00 | 0.00 | 28 | 1024.3 |
| 20260507015603 | 64 | 0 | 0.0 | 2.6 | 0.00 | 0.00 | 0.00 | 29 | 1024.3 |
| 20260507015058 | 64 | 0 | 0.9 | 2.6 | 0.00 | 0.00 | 0.00 | 27 | 1024.4 |
| 20260507014623 | 64 | 0 | 0.0 | 4.3 | 0.00 | 0.00 | 0.00 | 26 | 1024.4 |
| 20260507014058 | 65 | 0 | 1.7 | 7.8 | 0.00 | 0.00 | 0.00 | 26 | 1024.4 |
| 20260507013557 | 65 | 75 | 2.6 | 7.8 | 0.00 | 0.00 | 0.00 | 26 | 1024.4 |
| 20260507013101 | 66 | 37 | 0.9 | 5.2 | 0.00 | 0.00 | 0.00 | 25 | 1024.4 |
| 20260507012557 | 67 | 61 | 1.7 | 5.2 | 0.00 | 0.00 | 0.00 | 25 | 1024.4 |
| 20260507012058 | 66 | 276 | 0.9 | 5.2 | 0.00 | 0.00 | 0.00 | 27 | 1024.5 |
| 20260507011600 | 66 | 28 | 1.7 | 7.0 | 0.00 | 0.00 | 0.00 | 24 | 1024.5 |
| 20260507011057 | 66 | 0 | 0.0 | 7.0 | 0.00 | 0.00 | 0.00 | 26 | 1024.5 |
| 20260507010557 | 67 | 52 | 2.6 | 6.1 | 0.00 | 0.00 | 0.00 | 24 | 1024.4 |
| 20260507010058 | 68 | 345 | 0.9 | 3.5 | 0.00 | 0.00 | 0.00 | 24 | 1024.3 |
| 20260507005558 | 68 | 24 | 0.9 | 3.5 | 0.00 | 0.00 | 0.00 | 24 | 1024.4 |
| 20260507005057 | 68 | 313 | 0.0 | 3.5 | 0.00 | 0.00 | 0.00 | 24 | 1024.4 |
| 20260507004558 | 68 | 314 | 0.0 | 2.6 | 0.00 | 0.00 | 0.00 | 26 | 1024.3 |
| 20260507004057 | 68 | 295 | 0.9 | 3.5 | 0.00 | 0.00 | 0.00 | 23 | 1024.2 |
| 20260507003557 | 67 | 0 | 0.0 | 7.8 | 0.00 | 0.00 | 0.00 | 24 | 1024.2 |
| 20260507003058 | 67 | 358 | 0.0 | 12.2 | 0.00 | 0.00 | 0.00 | 26 | 1024.2 |
| 20260507002557 | 66 | 266 | 4.3 | 12.2 | 0.00 | 0.00 | 0.00 | 24 | 1024.2 |
| 20260507002057 | 67 | 54 | 4.3 | 12.2 | 0.00 | 0.00 | 0.00 | 22 | 1024.2 |
| 20260507001606 | 68 | 4 | 0.9 | 4.3 | 0.00 | 0.00 | 0.00 | 22 | 1024.1 |
| 20260507001057 | 68 | 0 | 2.6 | 4.3 | 0.00 | 0.00 | 0.00 | 23 | 1024.1 |
| 20260507000600 | 69 | 326 | 1.7 | 10.4 | 0.00 | 0.00 | 0.00 | 22 | 1024.1 |
| 20260507000123 | 68 | 317 | 5.2 | 10.4 | 0.00 | 0.00 | 0.00 | 23 | 1023.8 |
| 20260506235557 | 68 | 345 | 2.6 | 13.9 | 0.00 | 0.00 | 0.00 | 22 | 1023.9 |
| 20260506235100 | 67 | 57 | 6.1 | 13.9 | 0.00 | 0.00 | 0.00 | 24 | 1024.1 |
| 20260506234618 | 67 | 46 | 1.7 | 11.3 | 0.00 | 0.00 | 0.00 | 23 | 1024.1 |
| 20260506234058 | 67 | 328 | 0.0 | 11.3 | 0.00 | 0.00 | 0.00 | 23 | 1024.0 |
| 20260506233601 | 67 | 59 | 5.2 | 11.3 | 0.00 | 0.00 | 0.00 | 22 | 1024.1 |
| 20260506233059 | 67 | 167 | 2.6 | 9.6 | 0.00 | 0.00 | 0.00 | 23 | 1024.1 |
| 20260506232557 | 66 | 0 | 3.5 | 11.3 | 0.00 | 0.00 | 0.00 | 22 | 1024.0 |
| 20260506232057 | 66 | 307 | 5.2 | 13.9 | 0.00 | 0.00 | 0.00 | 23 | 1024.0 |
| 20260506231556 | 67 | 98 | 6.1 | 13.9 | 0.00 | 0.00 | 0.00 | 22 | 1024.2 |
| 20260506231057 | 68 | 63 | 5.2 | 12.2 | 0.00 | 0.00 | 0.00 | 21 | 1023.9 |
| 20260506230558 | 68 | 52 | 2.6 | 7.8 | 0.00 | 0.00 | 0.00 | 23 | 1024.1 |
| 20260506230103 | 69 | 317 | 0.9 | 5.2 | 0.00 | 0.00 | 0.00 | 25 | 1024.0 |
| 20260506225557 | 69 | 0 | 0.9 | 5.2 | 0.00 | 0.00 | 0.00 | 25 | 1024.0 |
| 20260506225057 | 69 | 49 | 1.7 | 5.2 | 0.00 | 0.00 | 0.00 | 25 | 1024.1 |
| 20260506224556 | 69 | 70 | 1.7 | 4.3 | 0.00 | 0.00 | 0.00 | 27 | 1024.1 |
| 20260506224056 | 69 | 304 | 0.9 | 4.3 | 0.00 | 0.00 | 0.00 | 25 | 1024.0 |
| 20260506223559 | 70 | 39 | 1.7 | 4.3 | 0.00 | 0.00 | 0.00 | 25 | 1024.2 |
| 20260506223100 | 70 | 113 | 0.9 | 3.5 | 0.00 | 0.00 | 0.00 | 27 | 1024.2 |
| 20260506222559 | 70 | 0 | 0.9 | 3.5 | 0.00 | 0.00 | 0.00 | 25 | 1024.3 |
| 20260506222059 | 70 | 216 | 0.0 | 3.5 | 0.00 | 0.00 | 0.00 | 27 | 1024.4 |
| 20260506221603 | 70 | 321 | 0.9 | 5.2 | 0.00 | 0.00 | 0.00 | 28 | 1024.6 |
| 20260506221058 | 70 | 326 | 0.9 | 5.2 | 0.00 | 0.00 | 0.00 | 27 | 1024.5 |
| 20260506220558 | 71 | 1 | 0.9 | 3.5 | 0.00 | 0.00 | 0.00 | 26 | 1024.8 |
| 20260506220059 | 71 | 214 | 0.0 | 3.5 | 0.00 | 0.00 | 0.00 | 26 | 1024.8 |
| 20260506215558 | 71 | 309 | 0.9 | 3.5 | 0.00 | 0.00 | 0.00 | 27 | 1024.7 |
| 20260506215058 | 71 | 0 | 0.9 | 2.6 | 0.00 | 0.00 | 0.00 | 28 | 1024.9 |
| 20260506214602 | 71 | 224 | 0.0 | 3.5 | 0.00 | 0.00 | 0.00 | 28 | 1025.0 |
| 20260506214058 | 70 | 240 | 0.0 | 7.0 | 0.00 | 0.00 | 0.00 | 30 | 1025.0 |
| 20260506213601 | 68 | 0 | 0.9 | 7.0 | 0.00 | 0.00 | 0.00 | 29 | 1025.0 |
| 20260506213103 | 67 | 9 | 1.7 | 7.8 | 0.00 | 0.00 | 0.00 | 29 | 1024.9 |
| 20260506212559 | 67 | 83 | 1.7 | 7.8 | 0.00 | 0.00 | 0.00 | 30 | 1025.1 |
| 20260506212059 | 69 | 53 | 1.7 | 6.1 | 0.00 | 0.00 | 0.00 | 29 | 1024.9 |
| 20260506211603 | 68 | 255 | 2.6 | 6.1 | 0.00 | 0.00 | 0.00 | 30 | 1025.1 |
| 20260506211104 | 68 | 49 | 0.9 | 4.3 | 0.00 | 0.00 | 0.00 | 30 | 1024.9 |
| 20260506210559 | 69 | 70 | 1.7 | 4.3 | 0.00 | 0.00 | 0.00 | 30 | 1025.1 |
| 20260506205558 | 70 | 117 | 0.9 | 5.2 | 0.00 | 0.00 | 0.00 | 29 | 1025.1 |
| 20260506205058 | 69 | 321 | 0.9 | 5.2 | 0.00 | 0.00 | 0.00 | 30 | 1025.1 |
| 20260506204600 | 69 | 20 | 0.0 | 4.3 | 0.00 | 0.00 | 0.00 | 29 | 1025.1 |
| 20260506204058 | 70 | 313 | 0.9 | 4.3 | 0.00 | 0.00 | 0.00 | 29 | 1025.0 |
| 20260506203558 | 70 | 359 | 1.7 | 4.3 | 0.00 | 0.00 | 0.00 | 28 | 1025.1 |
| 20260506203106 | 70 | 273 | 0.9 | 5.2 | 0.00 | 0.00 | 0.00 | 29 | 1025.0 |
| 20260506202600 | 70 | 295 | 0.9 | 5.2 | 0.00 | 0.00 | 0.00 | 29 | 1025.1 |
| 20260506202058 | 70 | 307 | 1.7 | 5.2 | 0.00 | 0.00 | 0.00 | 29 | 1025.0 |
| 20260506201558 | 70 | 264 | 0.9 | 2.6 | 0.00 | 0.00 | 0.00 | 30 | 1025.0 |
| 20260506201057 | 69 | 183 | 0.9 | 2.6 | 0.00 | 0.00 | 0.00 | 29 | 1025.1 |
| 20260506200558 | 68 | 311 | 0.0 | 5.2 | 0.00 | 0.00 | 0.00 | 30 | 1025.1 |
| 20260506200111 | 67 | 26 | 2.6 | 7.0 | 0.00 | 0.00 | 0.00 | 31 | 1025.2 |
| 20260506195559 | 67 | 41 | 0.9 | 7.0 | 0.00 | 0.00 | 0.00 | 32 | 1025.2 |
| 20260506195059 | 67 | 328 | 2.6 | 7.0 | 0.00 | 0.00 | 0.00 | 33 | 1025.5 |
| 20260506194556 | 67 | 117 | 0.0 | 3.5 | 0.00 | 0.00 | 0.00 | 34 | 1025.4 |
| 20260506194059 | 68 | 282 | 0.9 | 3.5 | 0.00 | 0.00 | 0.00 | 31 | 1025.3 |
| 20260506193557 | 68 | 251 | 0.0 | 4.3 | 0.00 | 0.00 | 0.00 | 31 | 1025.5 |
| 20260506193100 | 68 | 266 | 0.0 | 4.3 | 0.00 | 0.00 | 0.00 | 30 | 1025.3 |
| 20260506192559 | 67 | 305 | 0.0 | 4.3 | 0.00 | 0.00 | 0.00 | 31 | 1025.5 |
| 20260506192058 | 67 | 0 | 0.9 | 4.3 | 0.00 | 0.00 | 0.00 | 31 | 1025.6 |
| 20260506191606 | 67 | 72 | 1.7 | 4.3 | 0.00 | 0.00 | 0.00 | 30 | 1025.6 |
| 20260506191059 | 68 | 321 | 1.7 | 3.5 | 0.00 | 0.00 | 0.00 | 30 | 1025.5 |
| 20260506190558 | 67 | 89 | 0.0 | 3.5 | 0.00 | 0.00 | 0.00 | 31 | 1025.5 |
| 20260506190059 | 67 | 287 | 0.9 | 4.3 | 0.00 | 0.00 | 0.00 | 31 | 1025.6 |
| 20260506185602 | 66 | 234 | 0.0 | 4.3 | 0.00 | 0.00 | 0.00 | 34 | 1025.5 |
| 20260506185059 | 66 | 165 | 1.7 | 6.1 | 0.00 | 0.00 | 0.00 | 33 | 1025.6 |
| 20260506184604 | 65 | 295 | 1.7 | 6.1 | 0.00 | 0.00 | 0.00 | 33 | 1025.6 |
| 20260506184059 | 65 | 287 | 2.6 | 6.1 | 0.00 | 0.00 | 0.00 | 32 | 1025.5 |
| 20260506183559 | 64 | 44 | 0.0 | 5.2 | 0.00 | 0.00 | 0.00 | 35 | 1025.7 |
| 20260506183104 | 64 | 48 | 2.6 | 5.2 | 0.00 | 0.00 | 0.00 | 34 | 1025.7 |
| 20260506182558 | 65 | 45 | 0.0 | 3.5 | 0.00 | 0.00 | 0.00 | 35 | 1025.6 |
| 20260506182058 | 65 | 10 | 0.9 | 3.5 | 0.00 | 0.00 | 0.00 | 35 | 1025.7 |
| 20260506181607 | 65 | 288 | 0.9 | 5.2 | 0.00 | 0.00 | 0.00 | 34 | 1025.5 |
| 20260506181059 | 65 | 282 | 0.9 | 5.2 | 0.00 | 0.00 | 0.00 | 34 | 1025.6 |
| 20260506180559 | 65 | 255 | 0.9 | 5.2 | 0.00 | 0.00 | 0.00 | 36 | 1025.6 |
| 20260506180059 | 65 | 322 | 0.0 | 3.5 | 0.00 | 0.00 | 0.00 | 33 | 1025.6 |
| 20260506175558 | 65 | 27 | 0.9 | 3.5 | 0.00 | 0.00 | 0.00 | 35 | 1025.6 |
| 20260506175058 | 65 | 292 | 0.9 | 3.5 | 0.00 | 0.00 | 0.00 | 35 | 1025.6 |
| 20260506174557 | 65 | 313 | 0.9 | 4.3 | 0.00 | 0.00 | 0.00 | 35 | 1025.5 |
| 20260506174058 | 64 | 0 | 1.7 | 4.3 | 0.00 | 0.00 | 0.00 | 37 | 1025.5 |
| 20260506173558 | 62 | 72 | 1.7 | 5.2 | 0.00 | 0.00 | 0.00 | 39 | 1025.5 |
| 20260506173126 | 62 | 218 | 2.6 | 5.2 | 0.00 | 0.00 | 0.00 | 38 | 1025.3 |
| 20260506172558 | 62 | 288 | 0.9 | 4.3 | 0.00 | 0.00 | 0.00 | 38 | 1025.3 |
| 20260506172058 | 62 | 298 | 2.6 | 4.3 | 0.00 | 0.00 | 0.00 | 39 | 1025.3 |
| 20260506171604 | 62 | 54 | 2.6 | 4.3 | 0.00 | 0.00 | 0.00 | 39 | 1025.1 |
| 20260506171059 | 63 | 275 | 0.9 | 2.6 | 0.00 | 0.00 | 0.00 | 39 | 1025.3 |
| 20260506170559 | 62 | 66 | 0.9 | 3.5 | 0.00 | 0.00 | 0.00 | 39 | 1025.3 |
| 20260506170109 | 61 | 27 | 0.9 | 3.5 | 0.00 | 0.00 | 0.00 | 43 | 1025.3 |
| 20260506165559 | 61 | 50 | 0.9 | 2.6 | 0.00 | 0.01 | 0.00 | 48 | 1025.3 |
| 20260506165059 | 59 | 0 | 0.9 | 2.6 | 0.00 | 0.01 | 0.00 | 46 | 1025.3 |
| 20260506164559 | 58 | 0 | 0.0 | 2.6 | 0.00 | 0.01 | 0.00 | 53 | 1025.2 |
| 20260506164058 | 57 | 0 | 0.9 | 2.6 | 0.00 | 0.01 | 0.00 | 54 | 1025.2 |
| 20260506163558 | 57 | 308 | 0.0 | 1.7 | 0.00 | 0.01 | 0.00 | 54 | 1025.1 |
| 20260506163100 | 56 | 70 | 0.0 | 3.5 | 0.00 | 0.01 | 0.00 | 57 | 1025.3 |
| 20260506162558 | 54 | 0 | 0.9 | 3.5 | 0.00 | 0.01 | 0.00 | 59 | 1025.2 |
| 20260506162058 | 54 | 49 | 0.9 | 3.5 | 0.00 | 0.01 | 0.00 | 60 | 1025.3 |
| 20260506161559 | 53 | 23 | 0.9 | 4.3 | 0.00 | 0.01 | 0.00 | 63 | 1025.2 |
| 20260506161058 | 52 | 57 | 2.6 | 4.3 | 0.00 | 0.01 | 0.00 | 62 | 1025.0 |
| 20260506160558 | 53 | 9 | 0.9 | 2.6 | 0.00 | 0.01 | 0.00 | 62 | 1025.0 |
| 20260506160059 | 52 | 305 | 0.0 | 2.6 | 0.00 | 0.01 | 0.00 | 65 | 1025.1 |
| 20260506155602 | 51 | 53 | 0.9 | 3.5 | 0.00 | 0.05 | 0.00 | 64 | 1025.1 |
| 20260506155102 | 50 | 0 | 0.9 | 3.5 | 0.00 | 0.05 | 0.00 | 64 | 1025.1 |
| 20260506154613 | 50 | 34 | 1.7 | 3.5 | 0.00 | 0.05 | 0.00 | 66 | 1025.1 |
| 20260506154058 | 50 | 0 | 0.0 | 2.6 | 0.00 | 0.05 | 0.00 | 68 | 1025.1 |
| 20260506153558 | 49 | 45 | 0.9 | 2.6 | 0.00 | 0.05 | 0.00 | 70 | 1024.9 |
| 20260506153059 | 48 | 48 | 0.9 | 2.6 | 0.00 | 0.05 | 0.00 | 72 | 1024.9 |
| 20260506152559 | 47 | 56 | 0.0 | 2.6 | 0.00 | 0.05 | 0.00 | 74 | 1025.0 |
| 20260506152101 | 47 | 88 | 0.0 | 2.6 | 0.00 | 0.05 | 0.00 | 76 | 1025.0 |
| 20260506151558 | 46 | 94 | 0.9 | 2.6 | 0.00 | 0.05 | 0.00 | 75 | 1025.1 |
| 20260506151058 | 46 | 0 | 0.9 | 1.7 | 0.00 | 0.05 | 0.00 | 79 | 1025.1 |
| 20260506150600 | 45 | 46 | 0.0 | 1.7 | 0.00 | 0.05 | 0.00 | 80 | 1025.1 |
| 20260506150057 | 44 | 62 | 0.9 | 1.7 | 0.00 | 0.05 | 0.00 | 80 | 1025.2 |
| 20260506145559 | 44 | 77 | 0.9 | 1.7 | 0.00 | 0.10 | 0.00 | 79 | 1024.9 |
| 20260506145058 | 44 | 70 | 0.0 | 1.7 | 0.00 | 0.10 | 0.00 | 82 | 1025.1 |
| 20260506144607 | 43 | 65 | 0.9 | 1.7 | 0.00 | 0.10 | 0.00 | 82 | 1024.9 |
| 20260506144101 | 43 | 55 | 0.9 | 1.7 | 0.00 | 0.10 | 0.00 | 83 | 1024.8 |
| 20260506143602 | 42 | 0 | 0.0 | 0.9 | 0.00 | 0.10 | 0.00 | 83 | 1024.8 |
| 20260506143058 | 42 | 0 | 0.0 | 0.9 | 0.00 | 0.10 | 0.00 | 82 | 1024.6 |
| 20260506142558 | 42 | 0 | 0.0 | 0.9 | 0.00 | 0.10 | 0.00 | 84 | 1024.7 |
| 20260506142058 | 41 | 0 | 0.0 | 0.9 | 0.00 | 0.10 | 0.00 | 83 | 1024.7 |
| 20260506141602 | 41 | 0 | 0.0 | 0.0 | 0.00 | 0.10 | 0.00 | 85 | 1024.6 |
| 20260506141100 | 40 | 0 | 0.0 | 0.0 | 0.00 | 0.10 | 0.00 | 86 | 1024.5 |
| 20260506140602 | 39 | 0 | 0.0 | 0.0 | 0.00 | 0.10 | 0.00 | 87 | 1024.4 |
| 20260506140058 | 38 | 0 | 0.0 | 0.9 | 0.00 | 0.10 | 0.00 | 90 | 1024.4 |
| 20260506135559 | 36 | 0 | 0.0 | 1.7 | 0.00 | 0.11 | 0.00 | 92 | 1024.3 |
| 20260506135058 | 34 | 0 | 0.0 | 1.7 | 0.00 | 0.11 | 0.00 | 92 | 1024.2 |
| 20260506134556 | 33 | 169 | 0.0 | 0.9 | 0.00 | 0.11 | 0.00 | 92 | 1024.2 |
| 20260506134102 | 33 | 0 | 0.0 | 0.0 | 0.00 | 0.11 | 0.00 | 92 | 1024.0 |
| 20260506133559 | 33 | 0 | 0.0 | 0.0 | 0.00 | 0.11 | 0.00 | 92 | 1024.0 |
| 20260506133126 | 33 | 0 | 0.0 | 0.0 | 0.00 | 0.11 | 0.00 | 92 | 1023.8 |
| 20260506132558 | 33 | 0 | 0.0 | 1.7 | 0.00 | 0.11 | 0.00 | 92 | 1023.9 |
| 20260506132058 | 33 | 0 | 0.0 | 1.7 | 0.00 | 0.11 | 0.00 | 92 | 1023.8 |
| 20260506131558 | 33 | 219 | 0.0 | 1.7 | 0.00 | 0.11 | 0.00 | 92 | 1023.8 |
| 20260506131058 | 33 | 0 | 0.0 | 0.9 | 0.00 | 0.11 | 0.00 | 92 | 1023.8 |
| 20260506130559 | 32 | 0 | 0.0 | 0.9 | 0.00 | 0.11 | 0.00 | 91 | 1023.7 |
| 20260506130122 | 33 | 0 | 0.0 | 0.0 | 0.00 | 0.11 | 0.00 | 92 | 1023.5 |
| 20260506125559 | 33 | 0 | 0.0 | 0.0 | 0.00 | 0.11 | 0.00 | 91 | 1023.6 |
| 20260506125058 | 33 | 0 | 0.0 | 0.9 | 0.00 | 0.11 | 0.00 | 91 | 1023.4 |
| 20260506124559 | 33 | 0 | 0.0 | 0.9 | 0.00 | 0.11 | 0.00 | 91 | 1023.2 |
| 20260506124058 | 33 | 0 | 0.0 | 0.9 | 0.00 | 0.11 | 0.00 | 91 | 1023.3 |
| 20260506123558 | 33 | 0 | 0.0 | 0.9 | 0.00 | 0.11 | 0.00 | 90 | 1023.1 |
| 20260506123057 | 34 | 0 | 0.0 | 0.9 | 0.00 | 0.11 | 0.00 | 91 | 1023.1 |
| 20260506122602 | 34 | 0 | 0.0 | 0.9 | 0.00 | 0.11 | 0.00 | 91 | 1023.0 |
| 20260506122058 | 34 | 0 | 0.0 | 0.9 | 0.00 | 0.11 | 0.00 | 91 | 1023.1 |
| 20260506121559 | 33 | 0 | 0.0 | 0.9 | 0.00 | 0.11 | 0.00 | 90 | 1022.9 |
| 20260506121059 | 34 | 184 | 0.0 | 0.9 | 0.00 | 0.11 | 0.00 | 89 | 1022.9 |
| 20260506120601 | 34 | 0 | 0.0 | 0.0 | 0.00 | 0.11 | 0.00 | 90 | 1022.9 |
| 20260506120058 | 34 | 0 | 0.0 | 1.7 | 0.00 | 0.11 | 0.00 | 90 | 1022.7 |
| 20260506115602 | 34 | 0 | 0.0 | 1.7 | 0.00 | 0.11 | 0.00 | 90 | 1022.7 |
| 20260506115058 | 34 | 188 | 0.9 | 1.7 | 0.00 | 0.11 | 0.00 | 89 | 1022.6 |
| 20260506114605 | 34 | 0 | 0.0 | 0.9 | 0.00 | 0.11 | 0.00 | 89 | 1022.8 |
| 20260506114058 | 34 | 184 | 0.0 | 0.9 | 0.00 | 0.11 | 0.00 | 88 | 1022.7 |
| 20260506113558 | 34 | 0 | 0.0 | 0.9 | 0.00 | 0.11 | 0.00 | 88 | 1022.6 |
| 20260506113058 | 35 | 0 | 0.0 | 0.9 | 0.00 | 0.11 | 0.00 | 89 | 1022.6 |